This demonstration page uses our WeatherBlox Daily Observations layout. Learn more.

Left ArrowRight Arrow

Hourly Observations for November 8, 2021

Temp ( °F °C ) Dew Point ( °F °C ) Humidity (%) Winds ( mph kmh ) Pressure ( in mb ) Visibility ( mi km ) Precip ( " mm )
12:56 am 00:56 Clear 46 7.8 41 5 83 83 N 6 9 29.97 1015 10 16 0.00 0.00
1:56 am 01:56 Clear 47 8.3 40 4.4 77 77 N 10 17 29.97 1015 10 16 0.00 0.00
2:56 am 02:56 Clear 45 7.2 39 3.9 80 80 N 7 11 29.98 1015 10 16 0.00 0.00
3:56 am 03:56 Clear 44 6.7 39 3.9 83 83 NNE 15 24 29.98 1015 10 16 0.00 0.00
4:56 am 04:56 Clear 44 6.7 39 3.9 83 83 N 17 28 30.00 1016 10 16 0.00 0.00
5:56 am 05:56 Clear 43 6.1 39 3.9 86 86 N 12 19 30.03 1017 10 16 0.00 0.00
6:56 am 06:56 Clear 42 5.6 39 3.9 89 89 NNE 13 20 30.05 1018 10 16 0.00 0.00
7:56 am 07:56 Sunny 42 5.6 39 3.9 89 89 N 15 24 30.10 1019 10 16 0.00 0.00
8:56 am 08:56 Sunny 46 7.8 40 4.4 79 79 NNE 22 35 30.13 1020 10 16 0.00 0.00
9:17 am 09:17 Mostly Cloudy 46 8 41 5 82 82 NNE 20 31 30.14 1021 10 16 0.00 0.00
9:56 am 09:56 Cloudy 49 9.4 41 5 74 74 NNE 22 35 30.14 1021 10 16 0.00 0.00
10:56 am 10:56 Cloudy 52 11.1 40 4.4 64 64 NNE 23 37 30.16 1021 10 16 0.00 0.00
11:56 am 11:56 Cloudy 52 11.1 40 4.4 64 64 NNE 23 37 30.16 1021 10 16 0.00 0.00
12:47 pm 12:47 Mostly Sunny 55 13 39 4 55 55 NE 22 35 30.12 1020 10 16 0.00 0.00
12:56 pm 12:56 Mostly Sunny 58 14.4 41 5 53 53 NE 26 43 30.13 1020 10 16 0.00 0.00
1:56 pm 13:56 Sunny 58 14.4 39 3.9 50 50 NE 21 33 30.14 1021 10 16 0.00 0.00
2:56 pm 14:56 Sunny 59 15 37 2.8 44 44 NNE 21 33 30.14 1021 10 16 0.00 0.00
3:56 pm 15:56 Sunny 57 13.9 36 2.2 45 45 NNE 21 33 30.15 1021 10 16 0.00 0.00
4:56 pm 16:56 Sunny 54 12.2 35 1.7 49 49 NE 16 26 30.18 1022 10 16 0.00 0.00
5:56 pm 17:56 Clear 48 8.9 35 1.7 61 61 NNE 12 19 30.22 1023 10 16 0.00 0.00
6:56 pm 18:56 Clear 44 6.7 34 1.1 68 68 N 9 15 30.26 1025 10 16 0.00 0.00
7:56 pm 19:56 Clear 44 6.7 33 0.6 65 65 N 10 17 30.26 1025 10 16 0.00 0.00
8:56 pm 20:56 Mostly Clear 43 6.1 32 0 65 65 N 13 20 30.26 1025 10 16 0.00 0.00
9:56 pm 21:56 Clear 43 6.1 31 -0.6 63 63 NNE 12 19 30.27 1025 10 16 0.00 0.00
10:56 pm 22:56 Clear 43 6.1 29 -1.7 58 58 NNE 12 19 30.27 1025 10 16 0.00 0.00
11:56 pm 23:56 Clear 40 4.4 29 -1.7 65 65 N 10 17 30.28 1025 10 16 0.00 0.00

Powered by AerisWeather